Weather in Tomsk

Russia / Tomsk District     56°29′04″N   84°56′51″E
temp.,
°C
wind,
m/s
gust,
m/s
humid.,
%
clouds,
%
prec.,
mm/h
press.,
hPa
HPBL,
m
6 may, thu
thu601:00+9ssw2578100 0.0 101288
04:00+9sw228198 0.0 101132
07:00+9s248010 0.0 101090
10:00+16ssw345569 0.0 1009410
13:00+21s45415 0.0 10071024
16:00+23s57374 0.0 10051649
19:00+21s374191 0.0 1003342
22:00+15sse346497 0.0 100360
7 may, fri
fri701:00+13s387598 0.0 1001139
04:00+12wsw2478100 0.0 100281
07:00+11nw41181100 0.0 1005629
10:00+14wnw5752100 0.0 10061202
13:00+16wnw79355 0.0 10072152
16:00+16wnw7113596 0.0 10082624
19:00+14wnw594475 0.0 10102129
22:00+10wnw4105819 0.1 1013482
8 may, sat
sat801:00+7w38665 0.1 1016251
04:00+6sw311715 0.0 1016262
07:00+7wsw411654 0.0 1017404
10:00+13wsw6124393 0.0 10151333
13:00+12wsw6125587 0.1 10151112
16:00+13w5136152 0.1 10141321
19:00+15wnw6145545 0.4 10142061
22:00+8nnw37653 0.1 1017212
9 may, sun
sun901:00+4nnw22785 0.1 101931
04:00+2nnw22793 0.0 102029
07:00+3nnw24725 0.0 1022202
10:00+8n23525 0.0 1022970
13:00+12n22395 0.0 10221450
16:00+14n223412 0.0 10211696
19:00+14nne223655 0.0 10211827
22:00+8e22595 0.0 102220
10 may, mon
mon1001:00+6ne24685 0.0 102284
04:00+5e39815 0.0 1022200
07:00+6e38745 0.0 1022245
10:00+11ene57505 0.0 10211062
13:00+14ene46415 0.0 10191624
16:00+16ene453635 0.0 10172026
19:00+14ne5745100 0.0 10161455
22:00+10nne41054100 0.0 1017601